Location: La Pernelle
(49.6188°N, 1.2999°W)
Time: 10:56:21
(UTC+00:00)

Cosmos 1954 Rocket - Pass Details

Date: 23 October 2021
Orbit: 751 x 782 km, 74.0° (Epoch: 26 November)

Event Time Altitude Azimuth Distance (km) Brightness Sun altitude
Rises 20:41:15 0° 332° (NNW) 3,238 7.9 -35.9°
Reaches altitude 10° 20:43:41 10° 327° (NNW) 2,312 7.1 -36.3°
Enters shadow 20:46:16 28° 311° (NW) 1,431 5.8 -36.6°
